Year,Month,Day,Hour,Minute,Value (Times are PST for temperature in C)
2018,09,26,00,00,9.10
2018,09,26,00,01,9.10
2018,09,26,00,02,9.10
2018,09,26,00,03,9.10
2018,09,26,00,04,9.10
2018,09,26,00,05,9.10
2018,09,26,00,06,9.00
2018,09,26,00,07,9.10
2018,09,26,00,08,9.00
2018,09,26,00,09,9.10
2018,09,26,00,10,9.10
2018,09,26,00,11,9.00
2018,09,26,00,12,9.00
2018,09,26,00,13,9.10
2018,09,26,00,14,9.00
2018,09,26,00,15,9.00
2018,09,26,00,16,9.00
2018,09,26,00,17,9.00
2018,09,26,00,18,9.00
2018,09,26,00,19,9.00
2018,09,26,00,20,9.00
2018,09,26,00,21,9.00
2018,09,26,00,22,9.00
2018,09,26,00,23,9.00
2018,09,26,00,24,9.00
2018,09,26,00,25,9.00
2018,09,26,00,26,9.00
2018,09,26,00,27,9.00
2018,09,26,00,28,9.00
2018,09,26,00,29,9.00
2018,09,26,00,30,9.00
2018,09,26,00,31,9.00
2018,09,26,00,32,9.00
2018,09,26,00,33,9.00
2018,09,26,00,34,8.90
2018,09,26,00,35,8.90
2018,09,26,00,36,8.90
2018,09,26,00,37,8.90
2018,09,26,00,38,8.90
2018,09,26,00,39,8.90
2018,09,26,00,40,8.90
2018,09,26,00,41,8.90
2018,09,26,00,42,8.80
2018,09,26,00,43,8.80
2018,09,26,00,44,8.80
2018,09,26,00,45,8.80
2018,09,26,00,46,8.80
2018,09,26,00,47,8.80
2018,09,26,00,48,8.70
2018,09,26,00,49,8.70
2018,09,26,00,50,8.70
2018,09,26,00,51,8.70
2018,09,26,00,52,8.60
2018,09,26,00,53,8.60
2018,09,26,00,54,8.60
2018,09,26,00,55,8.60
2018,09,26,00,56,8.60
2018,09,26,00,57,8.60
2018,09,26,00,58,8.50
2018,09,26,00,59,8.50
2018,09,26,01,00,8.50
2018,09,26,01,01,8.50
2018,09,26,01,02,8.40
2018,09,26,01,03,8.40
2018,09,26,01,04,8.40
2018,09,26,01,05,8.40
2018,09,26,01,06,8.40
2018,09,26,01,07,8.40
2018,09,26,01,08,8.30
2018,09,26,01,09,8.30
2018,09,26,01,10,8.30
2018,09,26,01,11,8.30
2018,09,26,01,12,8.30
2018,09,26,01,13,8.30
2018,09,26,01,14,8.30
2018,09,26,01,15,8.30
2018,09,26,01,16,8.30
2018,09,26,01,17,8.20
2018,09,26,01,18,8.20
2018,09,26,01,19,8.20
2018,09,26,01,20,8.20
2018,09,26,01,21,8.20
2018,09,26,01,22,8.10
2018,09,26,01,23,8.10
2018,09,26,01,24,8.10
2018,09,26,01,25,8.10
2018,09,26,01,26,8.10
2018,09,26,01,27,8.10
2018,09,26,01,28,8.00
2018,09,26,01,29,8.00
2018,09,26,01,30,8.00
2018,09,26,01,31,8.00
2018,09,26,01,32,8.00
2018,09,26,01,33,8.00
2018,09,26,01,34,7.90
2018,09,26,01,35,7.90
2018,09,26,01,36,7.90
2018,09,26,01,37,7.90
2018,09,26,01,38,7.90
2018,09,26,01,39,7.90
2018,09,26,01,40,7.90
2018,09,26,01,41,7.90
2018,09,26,01,42,7.80
2018,09,26,01,43,7.80
2018,09,26,01,44,7.80
2018,09,26,01,45,7.80
2018,09,26,01,46,7.80
2018,09,26,01,47,7.80
2018,09,26,01,48,7.80
2018,09,26,01,49,7.80
2018,09,26,01,50,7.80
2018,09,26,01,51,7.70
2018,09,26,01,52,7.70
2018,09,26,01,53,7.70
2018,09,26,01,54,7.70
2018,09,26,01,55,7.70
2018,09,26,01,56,7.70
2018,09,26,01,57,7.70
2018,09,26,01,58,7.70
2018,09,26,01,59,7.70
2018,09,26,02,00,7.70
2018,09,26,02,01,7.70
2018,09,26,02,02,7.70
2018,09,26,02,03,7.70
2018,09,26,02,04,7.70
2018,09,26,02,05,7.70
2018,09,26,02,06,7.70
2018,09,26,02,07,7.70
2018,09,26,02,08,7.70
2018,09,26,02,09,7.70
2018,09,26,02,10,7.70
2018,09,26,02,11,7.70
2018,09,26,02,12,7.60
2018,09,26,02,13,7.60
2018,09,26,02,14,7.60
2018,09,26,02,15,7.60
2018,09,26,02,16,7.60
2018,09,26,02,17,7.60
2018,09,26,02,18,7.60
2018,09,26,02,19,7.60
2018,09,26,02,20,7.60
2018,09,26,02,21,7.60
2018,09,26,02,22,7.60
2018,09,26,02,23,7.60
2018,09,26,02,24,7.50
2018,09,26,02,25,7.60
2018,09,26,02,26,7.50
2018,09,26,02,27,7.50
2018,09,26,02,28,7.50
2018,09,26,02,29,7.50
2018,09,26,02,30,7.50
2018,09,26,02,31,7.50
2018,09,26,02,32,7.40
2018,09,26,02,33,7.40
2018,09,26,02,34,7.40
2018,09,26,02,35,7.40
2018,09,26,02,36,7.40
2018,09,26,02,37,7.40
2018,09,26,02,38,7.40
2018,09,26,02,39,7.40
2018,09,26,02,40,7.40
2018,09,26,02,41,7.30
2018,09,26,02,42,7.30
2018,09,26,02,43,7.30
2018,09,26,02,44,7.30
2018,09,26,02,45,7.30
2018,09,26,02,46,7.30
2018,09,26,02,47,7.30
2018,09,26,02,48,7.30
2018,09,26,02,49,7.30
2018,09,26,02,50,7.30
2018,09,26,02,51,7.20
2018,09,26,02,52,7.20
2018,09,26,02,53,7.20
2018,09,26,02,54,7.20
2018,09,26,02,55,7.20
2018,09,26,02,56,7.20
2018,09,26,02,57,7.20
2018,09,26,02,58,7.20
2018,09,26,02,59,7.20
2018,09,26,03,00,7.20
2018,09,26,03,01,7.20
2018,09,26,03,02,7.20
2018,09,26,03,03,7.20
2018,09,26,03,04,7.20
2018,09,26,03,05,7.20
2018,09,26,03,06,7.20
2018,09,26,03,07,7.20
2018,09,26,03,08,7.20
2018,09,26,03,09,7.30
2018,09,26,03,10,7.30
2018,09,26,03,11,7.30
2018,09,26,03,12,7.30
2018,09,26,03,13,7.30
2018,09,26,03,14,7.30
2018,09,26,03,15,7.30
2018,09,26,03,16,7.30
2018,09,26,03,17,7.30
2018,09,26,03,18,7.30
2018,09,26,03,19,7.30
2018,09,26,03,20,7.30
2018,09,26,03,21,7.30
2018,09,26,03,22,7.30
2018,09,26,03,23,7.30
2018,09,26,03,24,7.30
2018,09,26,03,25,7.30
2018,09,26,03,26,7.30
2018,09,26,03,27,7.30
2018,09,26,03,28,7.30
2018,09,26,03,29,7.30
2018,09,26,03,30,7.30
2018,09,26,03,31,7.30
2018,09,26,03,32,7.30
2018,09,26,03,33,7.30
2018,09,26,03,34,7.30
2018,09,26,03,35,7.30
2018,09,26,03,36,7.40
2018,09,26,03,37,7.40
2018,09,26,03,38,7.40
2018,09,26,03,39,7.40
2018,09,26,03,40,7.40
2018,09,26,03,41,7.40
2018,09,26,03,42,7.40
2018,09,26,03,43,7.30
2018,09,26,03,44,7.30
2018,09,26,03,45,7.30
2018,09,26,03,46,7.30
2018,09,26,03,47,7.30
2018,09,26,03,48,7.30
2018,09,26,03,49,7.30
2018,09,26,03,50,7.30
2018,09,26,03,51,7.30
2018,09,26,03,52,7.30
2018,09,26,03,53,7.30
2018,09,26,03,54,7.30
2018,09,26,03,55,7.30
2018,09,26,03,56,7.30
2018,09,26,03,57,7.20
2018,09,26,03,58,7.20
2018,09,26,03,59,7.20
2018,09,26,04,00,7.20
2018,09,26,04,01,7.20
2018,09,26,04,02,7.20
2018,09,26,04,03,7.20
2018,09,26,04,04,7.20
2018,09,26,04,05,7.20
2018,09,26,04,06,7.20
2018,09,26,04,07,7.20
2018,09,26,04,08,7.20
2018,09,26,04,09,7.20
2018,09,26,04,10,7.20
2018,09,26,04,11,7.10
2018,09,26,04,12,7.10
2018,09,26,04,13,7.20
2018,09,26,04,14,7.10
2018,09,26,04,15,7.10
2018,09,26,04,16,7.10
2018,09,26,04,17,7.10
2018,09,26,04,18,7.10
2018,09,26,04,19,7.10
2018,09,26,04,20,7.10
2018,09,26,04,21,7.10
2018,09,26,04,22,7.10
2018,09,26,04,23,7.10
2018,09,26,04,24,7.10
2018,09,26,04,25,7.10
2018,09,26,04,26,7.10
2018,09,26,04,27,7.10
2018,09,26,04,28,7.10
2018,09,26,04,29,7.10
2018,09,26,04,30,7.10
2018,09,26,04,31,7.10
2018,09,26,04,32,7.10
2018,09,26,04,33,7.10
2018,09,26,04,34,7.10
2018,09,26,04,35,7.10
2018,09,26,04,36,7.10
2018,09,26,04,37,7.00
2018,09,26,04,38,7.00
2018,09,26,04,39,7.00
2018,09,26,04,40,7.00
2018,09,26,04,41,7.00
2018,09,26,04,42,7.10
2018,09,26,04,43,7.10
2018,09,26,04,44,7.10
2018,09,26,04,45,7.10
2018,09,26,04,46,7.10
2018,09,26,04,47,7.00
2018,09,26,04,48,7.10
2018,09,26,04,49,7.00
2018,09,26,04,50,7.00
2018,09,26,04,51,7.00
2018,09,26,04,52,7.00
2018,09,26,04,53,7.00
2018,09,26,04,54,7.00
2018,09,26,04,55,7.00
2018,09,26,04,56,7.00
2018,09,26,04,57,7.00
2018,09,26,04,58,7.00
2018,09,26,04,59,7.00
2018,09,26,05,00,7.00
2018,09,26,05,01,7.00
2018,09,26,05,02,7.00
2018,09,26,05,03,7.00
2018,09,26,05,04,7.00
2018,09,26,05,05,7.00
2018,09,26,05,06,7.00
2018,09,26,05,07,7.00
2018,09,26,05,08,7.00
2018,09,26,05,09,7.00
2018,09,26,05,10,7.00
2018,09,26,05,11,7.00
2018,09,26,05,12,7.00
2018,09,26,05,13,6.90
2018,09,26,05,14,6.90
2018,09,26,05,15,6.90
2018,09,26,05,16,6.90
2018,09,26,05,17,6.90
2018,09,26,05,18,6.90
2018,09,26,05,19,6.90
2018,09,26,05,20,6.80
2018,09,26,05,21,6.80
2018,09,26,05,22,6.80
2018,09,26,05,23,6.80
2018,09,26,05,24,6.90
2018,09,26,05,25,6.90
2018,09,26,05,26,6.90
2018,09,26,05,27,7.00
2018,09,26,05,28,7.00
2018,09,26,05,29,7.10
2018,09,26,05,30,7.10
2018,09,26,05,31,7.20
2018,09,26,05,32,7.20
2018,09,26,05,33,7.20
2018,09,26,05,34,7.20
2018,09,26,05,35,7.30
2018,09,26,05,36,7.30
2018,09,26,05,37,7.30
2018,09,26,05,38,7.30
2018,09,26,05,39,7.30
2018,09,26,05,40,7.30
2018,09,26,05,41,7.30
2018,09,26,05,42,7.30
2018,09,26,05,43,7.30
2018,09,26,05,44,7.30
2018,09,26,05,45,7.30
2018,09,26,05,46,7.30
2018,09,26,05,47,7.40
2018,09,26,05,48,7.40
2018,09,26,05,49,7.40
2018,09,26,05,50,7.40
2018,09,26,05,51,7.40
2018,09,26,05,52,7.40
2018,09,26,05,53,7.40
2018,09,26,05,54,7.40
2018,09,26,05,55,7.40
2018,09,26,05,56,7.40
2018,09,26,05,57,7.40
2018,09,26,05,58,7.40
2018,09,26,05,59,7.50
2018,09,26,06,00,7.50
2018,09,26,06,01,7.50
2018,09,26,06,02,7.50
2018,09,26,06,03,7.60
2018,09,26,06,04,7.60
2018,09,26,06,05,7.60
2018,09,26,06,06,7.60
2018,09,26,06,07,7.60
2018,09,26,06,08,7.60
2018,09,26,06,09,7.60
2018,09,26,06,10,7.70
2018,09,26,06,11,7.70
2018,09,26,06,12,7.70
2018,09,26,06,13,7.70
2018,09,26,06,14,7.70
2018,09,26,06,15,7.80
2018,09,26,06,16,7.80
2018,09,26,06,17,7.80
2018,09,26,06,18,7.90
2018,09,26,06,19,8.00
2018,09,26,06,20,8.00
2018,09,26,06,21,8.10
2018,09,26,06,22,8.10
2018,09,26,06,23,8.10
2018,09,26,06,24,8.20
2018,09,26,06,25,8.20
2018,09,26,06,26,8.30
2018,09,26,06,27,8.30
2018,09,26,06,28,8.30
2018,09,26,06,29,8.30
2018,09,26,06,30,8.40
2018,09,26,06,31,8.40
2018,09,26,06,32,8.40
2018,09,26,06,33,8.40
2018,09,26,06,34,8.40
2018,09,26,06,35,8.50
2018,09,26,06,36,8.40
2018,09,26,06,37,8.50
2018,09,26,06,38,8.50
2018,09,26,06,39,8.50
2018,09,26,06,40,8.50
2018,09,26,06,41,8.50
2018,09,26,06,42,8.50
2018,09,26,06,43,8.50
2018,09,26,06,44,8.50
2018,09,26,06,45,8.50
2018,09,26,06,46,8.50
2018,09,26,06,47,8.50
2018,09,26,06,48,8.50
2018,09,26,06,49,8.50
2018,09,26,06,50,8.50
2018,09,26,06,51,8.50
2018,09,26,06,52,8.50
2018,09,26,06,53,8.50
2018,09,26,06,54,8.50
2018,09,26,06,55,8.50
2018,09,26,06,56,8.50
2018,09,26,06,57,8.50
2018,09,26,06,58,8.50
2018,09,26,06,59,8.50
2018,09,26,07,00,8.50
2018,09,26,07,01,8.50
2018,09,26,07,02,8.40
2018,09,26,07,03,8.40
2018,09,26,07,04,8.40
2018,09,26,07,05,8.40
2018,09,26,07,06,8.40
2018,09,26,07,07,8.40
2018,09,26,07,08,8.40
2018,09,26,07,09,8.40
2018,09,26,07,10,8.40
2018,09,26,07,11,8.40
2018,09,26,07,12,8.30
2018,09,26,07,13,8.30
2018,09,26,07,14,8.30
2018,09,26,07,15,8.30
2018,09,26,07,16,8.30
2018,09,26,07,17,8.30
2018,09,26,07,18,8.30
2018,09,26,07,19,8.30
2018,09,26,07,20,8.30
2018,09,26,07,21,8.30
2018,09,26,07,22,8.30
2018,09,26,07,23,8.30
2018,09,26,07,24,8.30
2018,09,26,07,25,8.30
2018,09,26,07,26,8.30
2018,09,26,07,27,8.30
2018,09,26,07,28,8.30
2018,09,26,07,29,8.30
2018,09,26,07,30,8.30
2018,09,26,07,31,8.20
2018,09,26,07,32,8.30
2018,09,26,07,33,8.20
2018,09,26,07,34,8.20
2018,09,26,07,35,8.20
2018,09,26,07,36,8.20
2018,09,26,07,37,8.20
2018,09,26,07,38,8.20
2018,09,26,07,39,8.20
2018,09,26,07,40,8.20
2018,09,26,07,41,8.20
2018,09,26,07,42,8.20
2018,09,26,07,43,8.20
2018,09,26,07,44,8.20
2018,09,26,07,45,8.30
2018,09,26,07,46,8.30
2018,09,26,07,47,8.30
2018,09,26,07,48,8.30
2018,09,26,07,49,8.30
2018,09,26,07,50,8.30
2018,09,26,07,51,8.30
2018,09,26,07,52,8.30
2018,09,26,07,53,8.40
2018,09,26,07,54,8.40
2018,09,26,07,55,8.40
2018,09,26,07,56,8.40
2018,09,26,07,57,8.40
2018,09,26,07,58,8.50
2018,09,26,07,59,8.50
2018,09,26,08,00,8.50
2018,09,26,08,01,8.60
2018,09,26,08,02,8.60
2018,09,26,08,03,8.60
2018,09,26,08,04,8.70
2018,09,26,08,05,8.70
2018,09,26,08,06,8.80
2018,09,26,08,07,8.80
2018,09,26,08,08,8.90
2018,09,26,08,09,9.00
2018,09,26,08,10,9.10
2018,09,26,08,11,9.20
2018,09,26,08,12,9.30
2018,09,26,08,13,9.30
2018,09,26,08,14,9.40
2018,09,26,08,15,9.50
2018,09,26,08,16,9.60
2018,09,26,08,17,9.60
2018,09,26,08,18,9.70
2018,09,26,08,19,9.80
2018,09,26,08,20,9.80
2018,09,26,08,21,9.90
2018,09,26,08,22,9.90
2018,09,26,08,23,10.00
2018,09,26,08,24,10.10
2018,09,26,08,25,10.20
2018,09,26,08,26,10.20
2018,09,26,08,27,10.30
2018,09,26,08,28,10.40
2018,09,26,08,29,10.50
2018,09,26,08,30,10.50
2018,09,26,08,31,10.60
2018,09,26,08,32,10.60
2018,09,26,08,33,10.70
2018,09,26,08,34,10.70
2018,09,26,08,35,10.70
2018,09,26,08,36,10.80
2018,09,26,08,37,10.80
2018,09,26,08,38,10.80
2018,09,26,08,39,10.90
2018,09,26,08,40,10.90
2018,09,26,08,41,11.00
2018,09,26,08,42,11.00
2018,09,26,08,43,11.10
2018,09,26,08,44,11.10
2018,09,26,08,45,11.10
2018,09,26,08,46,11.20
2018,09,26,08,47,11.20
2018,09,26,08,48,11.30
2018,09,26,08,49,11.30
2018,09,26,08,50,11.40
2018,09,26,08,51,11.50
2018,09,26,08,52,11.50
2018,09,26,08,53,11.60
2018,09,26,08,54,11.60
2018,09,26,08,55,11.70
2018,09,26,08,56,11.70
2018,09,26,08,57,11.80
2018,09,26,08,58,11.80
2018,09,26,08,59,11.90
2018,09,26,09,00,11.90
2018,09,26,09,01,12.00
2018,09,26,09,02,12.00
2018,09,26,09,03,12.00
2018,09,26,09,04,12.00
2018,09,26,09,05,12.00
2018,09,26,09,06,12.00
2018,09,26,09,07,12.00
2018,09,26,09,08,12.00
2018,09,26,09,09,12.00
2018,09,26,09,10,11.90
2018,09,26,09,11,12.00
2018,09,26,09,12,12.00
2018,09,26,09,13,12.00
2018,09,26,09,14,12.00
2018,09,26,09,15,12.00
2018,09,26,09,16,12.00
2018,09,26,09,17,12.00
2018,09,26,09,18,12.10
2018,09,26,09,19,12.10
2018,09,26,09,20,12.10
2018,09,26,09,21,12.10
2018,09,26,09,22,12.20
2018,09,26,09,23,12.20
2018,09,26,09,24,12.20
2018,09,26,09,25,12.20
2018,09,26,09,26,12.20
2018,09,26,09,27,12.30
2018,09,26,09,28,12.30
2018,09,26,09,29,12.30
2018,09,26,09,30,12.40
2018,09,26,09,31,12.40
2018,09,26,09,32,12.40
2018,09,26,09,33,12.50
2018,09,26,09,34,12.50
2018,09,26,09,35,12.50
2018,09,26,09,36,12.60
2018,09,26,09,37,12.60
2018,09,26,09,38,12.70
2018,09,26,09,39,12.70
2018,09,26,09,40,12.70
2018,09,26,09,41,12.80
2018,09,26,09,42,12.80
2018,09,26,09,43,12.80
2018,09,26,09,44,12.90
2018,09,26,09,45,12.90
2018,09,26,09,46,12.90
2018,09,26,09,47,13.00
2018,09,26,09,48,13.10
2018,09,26,09,49,13.10
2018,09,26,09,50,13.10
2018,09,26,09,51,13.10
2018,09,26,09,52,13.20
2018,09,26,09,53,13.20
2018,09,26,09,54,13.20
2018,09,26,09,55,13.20
2018,09,26,09,56,13.20
2018,09,26,09,57,13.30
2018,09,26,09,58,13.30
2018,09,26,09,59,13.30
2018,09,26,10,00,13.30
2018,09,26,10,01,13.40
2018,09,26,10,02,13.40
2018,09,26,10,03,13.50
2018,09,26,10,04,13.50
2018,09,26,10,05,13.60
2018,09,26,10,06,13.60
2018,09,26,10,07,13.70
2018,09,26,10,08,13.70
2018,09,26,10,09,13.70
2018,09,26,10,10,13.70
2018,09,26,10,11,13.80
2018,09,26,10,12,13.80
2018,09,26,10,13,13.80
2018,09,26,10,14,13.90
2018,09,26,10,15,13.90
2018,09,26,10,16,14.00
2018,09,26,10,17,14.10
2018,09,26,10,18,14.10
2018,09,26,10,19,14.20
2018,09,26,10,20,14.30
2018,09,26,10,21,14.30
2018,09,26,10,22,14.40
2018,09,26,10,23,14.40
2018,09,26,10,24,14.50
2018,09,26,10,25,14.60
2018,09,26,10,26,14.70
2018,09,26,10,27,14.70
2018,09,26,10,28,14.80
2018,09,26,10,29,14.80
2018,09,26,10,30,14.80
2018,09,26,10,31,14.90
2018,09,26,10,32,14.90
2018,09,26,10,33,15.00
2018,09,26,10,34,15.00
2018,09,26,10,35,15.10
2018,09,26,10,36,15.20
2018,09,26,10,37,15.20
2018,09,26,10,38,15.30
2018,09,26,10,39,15.30
2018,09,26,10,40,15.30
2018,09,26,10,41,15.30
2018,09,26,10,42,15.30
2018,09,26,10,43,15.30
2018,09,26,10,44,15.30
2018,09,26,10,45,15.30
2018,09,26,10,46,15.30
2018,09,26,10,47,15.30
2018,09,26,10,48,15.30
2018,09,26,10,49,15.30
2018,09,26,10,50,15.30
2018,09,26,10,51,15.30
2018,09,26,10,52,15.30
2018,09,26,10,53,15.30
2018,09,26,10,54,15.30
2018,09,26,10,55,15.30
2018,09,26,10,56,15.30
2018,09,26,10,57,15.30
2018,09,26,10,58,15.20
2018,09,26,10,59,15.30
2018,09,26,11,00,15.20
2018,09,26,11,01,15.30
2018,09,26,11,02,15.30
2018,09,26,11,03,15.30
2018,09,26,11,04,15.30
2018,09,26,11,05,15.40
2018,09,26,11,06,15.40
2018,09,26,11,07,15.40
2018,09,26,11,08,15.40
2018,09,26,11,09,15.40
2018,09,26,11,10,15.40
2018,09,26,11,11,15.40
2018,09,26,11,12,15.40
2018,09,26,11,13,15.40
2018,09,26,11,14,15.40
2018,09,26,11,15,15.40
2018,09,26,11,16,15.40
2018,09,26,11,17,15.40
2018,09,26,11,18,15.50
2018,09,26,11,19,15.50
2018,09,26,11,20,15.50
2018,09,26,11,21,15.60
2018,09,26,11,22,15.70
2018,09,26,11,23,15.70
2018,09,26,11,24,15.70
2018,09,26,11,25,15.80
2018,09,26,11,26,15.80
2018,09,26,11,27,15.80
2018,09,26,11,28,15.90
2018,09,26,11,29,15.90
2018,09,26,11,30,15.90
2018,09,26,11,31,16.00
2018,09,26,11,32,16.10
2018,09,26,11,33,16.10
2018,09,26,11,34,16.20
2018,09,26,11,35,16.30
2018,09,26,11,36,16.30
2018,09,26,11,37,16.40
2018,09,26,11,38,16.40
2018,09,26,11,39,16.40
2018,09,26,11,40,16.50
2018,09,26,11,41,16.60
2018,09,26,11,42,16.60
2018,09,26,11,43,16.60
2018,09,26,11,44,16.60
2018,09,26,11,45,16.50
2018,09,26,11,46,16.50
2018,09,26,11,47,16.50
2018,09,26,11,48,16.50
2018,09,26,11,49,16.50
2018,09,26,11,50,16.50
2018,09,26,11,51,16.40
2018,09,26,11,52,16.40
2018,09,26,11,53,16.50
2018,09,26,11,54,16.50
2018,09,26,11,55,16.50
2018,09,26,11,56,16.50
2018,09,26,11,57,16.60
2018,09,26,11,58,16.70
2018,09,26,11,59,16.70
2018,09,26,12,00,16.70
2018,09,26,12,01,16.80
2018,09,26,12,02,16.80
2018,09,26,12,03,16.80
2018,09,26,12,04,16.80
2018,09,26,12,05,16.90
2018,09,26,12,06,16.90
2018,09,26,12,07,16.90
2018,09,26,12,08,16.90
2018,09,26,12,09,17.00
2018,09,26,12,10,17.00
2018,09,26,12,11,17.10
2018,09,26,12,12,17.10
2018,09,26,12,13,17.10
2018,09,26,12,14,17.20
2018,09,26,12,15,17.20
2018,09,26,12,16,17.30
2018,09,26,12,17,17.30
2018,09,26,12,18,17.30
2018,09,26,12,19,17.40
2018,09,26,12,20,17.40
2018,09,26,12,21,17.40
2018,09,26,12,22,17.50
2018,09,26,12,23,17.60
2018,09,26,12,24,17.60
2018,09,26,12,25,17.70
2018,09,26,12,26,17.70
2018,09,26,12,27,17.80
2018,09,26,12,28,17.80
2018,09,26,12,29,17.90
2018,09,26,12,30,17.90
2018,09,26,12,31,17.90
2018,09,26,12,32,18.00
2018,09,26,12,33,18.00
2018,09,26,12,34,18.10
2018,09,26,12,35,18.10
2018,09,26,12,36,18.10
2018,09,26,12,37,18.20
2018,09,26,12,38,18.20
2018,09,26,12,39,18.20
2018,09,26,12,40,18.20
2018,09,26,12,41,18.20
2018,09,26,12,42,18.10
2018,09,26,12,43,18.10
2018,09,26,12,44,18.10
2018,09,26,12,45,18.10
2018,09,26,12,46,18.10
2018,09,26,12,47,18.00
2018,09,26,12,48,18.00
2018,09,26,12,49,18.00
2018,09,26,12,50,18.00
2018,09,26,12,51,18.00
2018,09,26,12,52,18.00
2018,09,26,12,53,18.00
2018,09,26,12,54,18.00
2018,09,26,12,55,18.10
2018,09,26,12,56,18.10
2018,09,26,12,57,18.10
2018,09,26,12,58,18.20
2018,09,26,12,59,18.10
2018,09,26,13,00,18.10
2018,09,26,13,01,18.10
2018,09,26,13,02,18.00
2018,09,26,13,03,18.10
2018,09,26,13,04,18.00
2018,09,26,13,05,18.00
2018,09,26,13,06,18.00
2018,09,26,13,07,18.00
2018,09,26,13,08,18.00
2018,09,26,13,09,18.00
2018,09,26,13,10,18.00
2018,09,26,13,11,18.00
2018,09,26,13,12,17.90
2018,09,26,13,13,17.90
2018,09,26,13,14,18.00
2018,09,26,13,15,18.00
2018,09,26,13,16,18.00
2018,09,26,13,17,18.00
2018,09,26,13,18,18.00
2018,09,26,13,19,18.00
2018,09,26,13,20,18.00
2018,09,26,13,21,18.00
2018,09,26,13,22,18.10
2018,09,26,13,23,18.00
2018,09,26,13,24,18.10
2018,09,26,13,25,18.10
2018,09,26,13,26,18.10
2018,09,26,13,27,18.10
2018,09,26,13,28,18.10
2018,09,26,13,29,18.20
2018,09,26,13,30,18.20
2018,09,26,13,31,18.20
2018,09,26,13,32,18.20
2018,09,26,13,33,18.20
2018,09,26,13,34,18.20
2018,09,26,13,35,18.20
2018,09,26,13,36,18.20
2018,09,26,13,37,18.20
2018,09,26,13,38,18.20
2018,09,26,13,39,18.30
2018,09,26,13,40,18.30
2018,09,26,13,41,18.30
2018,09,26,13,42,18.30
2018,09,26,13,43,18.40
2018,09,26,13,44,18.40
2018,09,26,13,45,18.40
2018,09,26,13,46,18.50
2018,09,26,13,47,18.50
2018,09,26,13,48,18.60
2018,09,26,13,49,18.60
2018,09,26,13,50,18.60
2018,09,26,13,51,18.60
2018,09,26,13,52,18.60
2018,09,26,13,53,18.60
2018,09,26,13,54,18.60
2018,09,26,13,55,18.60
2018,09,26,13,56,18.60
2018,09,26,13,57,18.60
2018,09,26,13,58,18.60
2018,09,26,13,59,18.60
2018,09,26,14,00,18.60
2018,09,26,14,01,18.60
2018,09,26,14,02,18.60
2018,09,26,14,03,18.60
2018,09,26,14,04,18.60
2018,09,26,14,05,18.60
2018,09,26,14,06,18.60
2018,09,26,14,07,18.60
2018,09,26,14,08,18.70
2018,09,26,14,09,18.70
2018,09,26,14,10,18.70
2018,09,26,14,11,18.70
2018,09,26,14,12,18.80
2018,09,26,14,13,18.80
2018,09,26,14,14,18.90
2018,09,26,14,15,18.90
2018,09,26,14,16,19.00
2018,09,26,14,17,19.00
2018,09,26,14,18,19.10
2018,09,26,14,19,19.10
2018,09,26,14,20,19.10
2018,09,26,14,21,19.10
2018,09,26,14,22,19.10
2018,09,26,14,23,19.10
2018,09,26,14,24,19.10
2018,09,26,14,25,19.10
2018,09,26,14,26,19.10
2018,09,26,14,27,19.10
2018,09,26,14,28,19.10
2018,09,26,14,29,19.20
2018,09,26,14,30,19.20
2018,09,26,14,31,19.20
2018,09,26,14,32,19.20
2018,09,26,14,33,19.20
2018,09,26,14,34,19.20
2018,09,26,14,35,19.10
2018,09,26,14,36,19.10
2018,09,26,14,37,19.10
2018,09,26,14,38,19.00
2018,09,26,14,39,18.90
2018,09,26,14,40,18.90
2018,09,26,14,41,18.90
2018,09,26,14,42,18.90
2018,09,26,14,43,18.90
2018,09,26,14,44,18.90
2018,09,26,14,45,18.90
2018,09,26,14,46,18.90
2018,09,26,14,47,18.90
2018,09,26,14,48,18.90
2018,09,26,14,49,18.80
2018,09,26,14,50,18.80
2018,09,26,14,51,18.80
2018,09,26,14,52,18.80
2018,09,26,14,53,18.80
2018,09,26,14,54,18.80
2018,09,26,14,55,18.80
2018,09,26,14,56,18.80
2018,09,26,14,57,18.90
2018,09,26,14,58,19.00
2018,09,26,14,59,19.10
2018,09,26,15,00,19.10
2018,09,26,15,01,19.20
2018,09,26,15,02,19.20
2018,09,26,15,03,19.20
2018,09,26,15,04,19.20
2018,09,26,15,05,19.20
2018,09,26,15,06,19.20
2018,09,26,15,07,19.30
2018,09,26,15,08,19.30
2018,09,26,15,09,19.30
2018,09,26,15,10,19.30
2018,09,26,15,11,19.30
2018,09,26,15,12,19.30
2018,09,26,15,13,19.30
2018,09,26,15,14,19.30
2018,09,26,15,15,19.30
2018,09,26,15,16,19.30
2018,09,26,15,17,19.30
2018,09,26,15,18,19.40
2018,09,26,15,19,19.30
2018,09,26,15,20,19.40
2018,09,26,15,21,19.40
2018,09,26,15,22,19.30
2018,09,26,15,23,19.40
2018,09,26,15,24,19.40
2018,09,26,15,25,19.40
2018,09,26,15,26,19.40
2018,09,26,15,27,19.40
2018,09,26,15,28,19.40
2018,09,26,15,29,19.30
2018,09,26,15,30,19.30
2018,09,26,15,31,19.30
2018,09,26,15,32,19.30
2018,09,26,15,33,19.40
2018,09,26,15,34,19.40
2018,09,26,15,35,19.40
2018,09,26,15,36,19.40
2018,09,26,15,37,19.40
2018,09,26,15,38,19.50
2018,09,26,15,39,19.50
2018,09,26,15,40,19.50
2018,09,26,15,41,19.50
2018,09,26,15,42,19.50
2018,09,26,15,43,19.50
2018,09,26,15,44,19.50
2018,09,26,15,45,19.60
2018,09,26,15,46,19.60
2018,09,26,15,47,19.60
2018,09,26,15,48,19.70
2018,09,26,15,49,19.70
2018,09,26,15,50,19.80
2018,09,26,15,51,19.80
2018,09,26,15,52,19.80
2018,09,26,15,53,19.80
2018,09,26,15,54,19.80
2018,09,26,15,55,19.80
2018,09,26,15,56,19.80
2018,09,26,15,57,19.80
2018,09,26,15,58,19.70
2018,09,26,15,59,19.60
2018,09,26,16,00,19.50
2018,09,26,16,01,19.40
2018,09,26,16,02,19.40
2018,09,26,16,03,19.30
2018,09,26,16,04,19.30
2018,09,26,16,05,19.30
2018,09,26,16,06,19.30
2018,09,26,16,07,19.30
2018,09,26,16,08,19.30
2018,09,26,16,09,19.40
2018,09,26,16,10,19.40
2018,09,26,16,11,19.40
2018,09,26,16,12,19.50
2018,09,26,16,13,19.50
2018,09,26,16,14,19.60
2018,09,26,16,15,19.60
2018,09,26,16,16,19.70
2018,09,26,16,17,19.60
2018,09,26,16,18,19.60
2018,09,26,16,19,19.60
2018,09,26,16,20,19.60
2018,09,26,16,21,19.60
2018,09,26,16,22,19.60
2018,09,26,16,23,19.70
2018,09,26,16,24,19.70
2018,09,26,16,25,19.70
2018,09,26,16,26,19.70
2018,09,26,16,27,19.80
2018,09,26,16,28,19.80
2018,09,26,16,29,19.90
2018,09,26,16,30,19.90
2018,09,26,16,31,19.80
2018,09,26,16,32,19.80
2018,09,26,16,33,19.80
2018,09,26,16,34,19.80
2018,09,26,16,35,19.80
2018,09,26,16,36,19.70
2018,09,26,16,37,19.70
2018,09,26,16,38,19.70
2018,09,26,16,39,19.70
2018,09,26,16,40,19.80
2018,09,26,16,41,19.80
2018,09,26,16,42,19.70
2018,09,26,16,43,19.70
2018,09,26,16,44,19.70
2018,09,26,16,45,19.70
2018,09,26,16,46,19.60
2018,09,26,16,47,19.60
2018,09,26,16,48,19.60
2018,09,26,16,49,19.60
2018,09,26,16,50,19.50
2018,09,26,16,51,19.50
2018,09,26,16,52,19.50
2018,09,26,16,53,19.60
2018,09,26,16,54,19.60
2018,09,26,16,55,19.60
2018,09,26,16,56,19.70
2018,09,26,16,57,19.70
2018,09,26,16,58,19.70
2018,09,26,16,59,19.70
2018,09,26,17,00,19.70
2018,09,26,17,01,19.70
2018,09,26,17,02,19.70
2018,09,26,17,03,19.70
2018,09,26,17,04,19.80
2018,09,26,17,05,19.80
2018,09,26,17,06,19.80
2018,09,26,17,07,19.80
2018,09,26,17,08,19.80
2018,09,26,17,09,19.80
2018,09,26,17,10,19.80
2018,09,26,17,11,19.80
2018,09,26,17,12,19.80
2018,09,26,17,13,19.70
2018,09,26,17,14,19.70
2018,09,26,17,15,19.60
2018,09,26,17,16,19.60
2018,09,26,17,17,19.50
2018,09,26,17,18,19.40
2018,09,26,17,19,19.30
2018,09,26,17,20,19.20
2018,09,26,17,21,19.20
2018,09,26,17,22,19.10
2018,09,26,17,23,19.10
2018,09,26,17,24,19.00
2018,09,26,17,25,18.90
2018,09,26,17,26,18.90
2018,09,26,17,27,18.90
2018,09,26,17,28,18.80
2018,09,26,17,29,18.80
2018,09,26,17,30,18.70
2018,09,26,17,31,18.70
2018,09,26,17,32,18.60
2018,09,26,17,33,18.50
2018,09,26,17,34,18.50
2018,09,26,17,35,18.40
2018,09,26,17,36,18.40
2018,09,26,17,37,18.40
2018,09,26,17,38,18.40
2018,09,26,17,39,18.30
2018,09,26,17,40,18.30
2018,09,26,17,41,18.30